Weather in Mglinshchina

Russia / Bryansk Oblast     53°01′55″N   32°48′03″E
temp.,
°C
wind,
m/s
gust,
m/s
humid.,
%
clouds,
%
prec.,
mm/h
press.,
hPa
HPBL,
m
11 may, tue
tue1100:00+6ene34810 0.0 102546
03:00+5ne47790 0.0 1026106
06:00+5ne410800 0.0 1025182
09:00+12ne58660 0.0 1024452
12:00+17ne57580 0.0 1022700
15:00+19ne68565 0.0 10211117
18:00+19ne58670 0.0 1020955
21:00+13e4109139 0.1 1021219
12 may, wed
wed1200:00+11ese511935 0.0 1022434
03:00+7ese4119288 0.0 1023338
06:00+5e49930 0.0 1024275
09:00+11ese58720 0.0 1024688
12:00+14e575825 0.0 10221500
15:00+16ene6851100 0.0 10192142
18:00+12e5874100 0.3 1017661
21:00+9e388798 0.4 1016219
13 may, thu
thu1300:00+7ene359571 0.0 1015105
03:00+7e4898100 0.3 1013272
06:00+8se5109264 2.1 1013573
09:00+9se688397 2.2 1014772
12:00+10sse577792 0.1 10141069
15:00+13sse5664100 0.2 10131502
18:00+13sse587063 0.0 10131097
21:00+9se478427 0.0 1014108
14 may, fri
fri1400:00+9se4984100 0.0 1013163
03:00+10ese41080100 0.0 1013221
06:00+10se51383100 0.0 1012354
09:00+14ese71185100 0.5 1011487
12:00+19se687296 0.0 10101114
15:00+19sse5877100 0.7 10091062
18:00+19sse5878100 1.0 1007811
21:00+15s499078 3.0 1007145
15 may, sat
sat1500:00+13s359315 0.2 100778
03:00+12sse34935 0.2 100757
06:00+11ssw369867 0.0 1007188
09:00+15sw578347 0.0 1008726
12:00+17sw586969 0.1 10091323
15:00+18wsw4766100 0.3 1009971
18:00+17sw367346 0.2 1010319
21:00+13sw34835 0.3 101042